Location: Poughquag
(41.6090°N, 73.6820°W)
Time: 10:38:47
(UTC-04:00)

Vanguard 2 Rocket - Pass Details

Date: 03 June 2020
Orbit: 556 x 3324 km, 32.9° (Epoch: 06 July)

Event Time Altitude Azimuth Distance (km) Brightness Sun altitude
Rises 21:32:18 0° 271° (W) 5,573 11.7 -10.9°
Reaches altitude 10° 21:36:47 10° 257° (WSW) 4,994 11.1 -11.5°
Maximum altitude 21:47:12 22° 214° (SW) 4,777 10.4 -12.8°
Drops below altitude 10° 22:00:08 10° 172° (S) 6,236 10.6 -14.4°
Enters shadow 22:01:56 - 169° (SSE) 6,507 10.7 -14.7°
Sets 22:06:57 0° 160° (SSE) 7,293 - -15.3°
